Time,TemperatureF,DewpointF,PressureIn,WindDirection,WindDirectionDegrees,WindSpeedMPH,WindSpeedGustMPH,Humidity,HourlyPrecipIn,Conditions,Clouds,dailyrainin,SoftwareType,DateUTC
2013-01-21 00:01:00,17.6,10.1,30.20,West,261,2.0,2.0,72,0.00,,---,0.00,VWS V14.00,2013-01-21 05:01:00,
2013-01-21 00:03:00,17.6,10.1,30.20,West,261,0.0,3.0,72,0.00,,---,0.00,VWS V14.00,2013-01-21 05:03:00,
2013-01-21 00:04:00,17.6,10.1,30.20,West,261,1.0,3.0,72,0.00,,---,0.00,VWS V14.00,2013-01-21 05:04:00,
2013-01-21 00:08:00,17.7,10.2,30.20,West,260,1.0,3.0,72,0.00,,---,0.00,VWS V14.00,2013-01-21 05:08:00,
2013-01-21 00:13:00,17.7,10.2,30.20,WSW,238,0.0,4.0,72,0.00,,---,0.00,VWS V14.00,2013-01-21 05:13:00,
2013-01-21 00:18:00,17.7,10.5,30.19,WSW,238,1.0,4.0,73,0.00,,---,0.00,VWS V14.00,2013-01-21 05:18:00,
2013-01-21 00:23:00,17.7,10.5,30.19,WSW,238,0.0,4.0,73,0.00,,---,0.00,VWS V14.00,2013-01-21 05:23:00,
2013-01-21 00:28:00,17.7,10.5,30.19,West,281,0.0,6.0,73,0.00,,---,0.00,VWS V14.00,2013-01-21 05:28:00,
2013-01-21 00:34:00,17.7,10.2,30.18,West,272,2.0,5.0,72,0.00,,---,0.00,VWS V14.00,2013-01-21 05:34:00,
2013-01-21 00:40:00,17.8,10.3,30.18,West,272,1.0,5.0,72,0.00,,---,0.00,VWS V14.00,2013-01-21 05:40:00,
2013-01-21 00:45:00,17.9,10.4,30.18,West,270,0.0,5.0,72,0.00,,---,0.00,VWS V14.00,2013-01-21 05:45:00,
2013-01-21 00:50:00,17.9,10.1,30.17,West,265,2.0,5.0,71,0.00,,---,0.00,VWS V14.00,2013-01-21 05:50:00,
2013-01-21 00:55:00,17.9,10.1,30.17,WSW,257,3.0,6.0,71,0.00,,---,0.00,VWS V14.00,2013-01-21 05:55:00,
2013-01-21 01:00:00,17.9,10.1,30.17,WSW,255,4.0,4.0,71,0.00,,---,0.00,VWS V14.00,2013-01-21 06:00:00,
2013-01-21 01:05:00,17.9,10.1,30.17,WSW,251,1.0,7.0,71,0.00,,---,0.00,VWS V14.00,2013-01-21 06:05:00,
2013-01-21 01:11:00,17.9,10.4,30.17,WSW,254,2.0,7.0,72,0.00,,---,0.00,VWS V14.00,2013-01-21 06:11:00,
2013-01-21 01:16:00,17.9,10.4,30.17,West,265,3.0,7.0,72,0.00,,---,0.00,VWS V14.00,2013-01-21 06:16:00,
2013-01-21 01:22:00,18.0,10.5,30.16,West,262,2.0,7.0,72,0.00,,---,0.00,VWS V14.00,2013-01-21 06:22:00,
2013-01-21 01:27:00,18.0,10.5,30.16,West,259,2.0,7.0,72,0.00,,---,0.00,VWS V14.00,2013-01-21 06:27:00,
2013-01-21 01:32:00,18.0,10.8,30.16,WSW,244,3.0,6.0,73,0.00,,---,0.00,VWS V14.00,2013-01-21 06:32:00,
2013-01-21 01:38:00,17.9,10.4,30.16,WSW,253,4.0,6.0,72,0.00,,---,0.00,VWS V14.00,2013-01-21 06:38:00,
2013-01-21 01:43:00,17.9,10.7,30.16,WSW,249,5.0,6.0,73,0.00,,---,0.00,VWS V14.00,2013-01-21 06:43:00,
2013-01-21 01:48:00,17.9,10.4,30.16,West,275,1.0,7.0,72,0.00,,---,0.00,VWS V14.00,2013-01-21 06:48:00,
2013-01-21 01:53:00,17.9,10.7,30.16,WSW,252,3.0,7.0,73,0.00,,---,0.00,VWS V14.00,2013-01-21 06:53:00,
2013-01-21 01:59:00,18.0,10.5,30.16,West,268,4.0,8.0,72,0.00,,---,0.00,VWS V14.00,2013-01-21 06:59:00,
2013-01-21 02:04:00,18.0,10.8,30.16,West,272,2.0,5.0,73,0.00,,---,0.00,VWS V14.00,2013-01-21 07:04:00,
2013-01-21 02:09:00,18.0,10.8,30.16,WSW,254,1.0,5.0,73,0.00,,---,0.00,VWS V14.00,2013-01-21 07:09:00,
2013-01-21 02:14:00,18.0,10.5,30.16,WSW,246,3.0,8.0,72,0.00,,---,0.00,VWS V14.00,2013-01-21 07:14:00,
2013-01-21 02:20:00,18.0,10.5,30.16,West,267,2.0,8.0,72,0.00,,---,0.00,VWS V14.00,2013-01-21 07:20:00,
2013-01-21 02:25:00,18.0,10.5,30.16,WSW,252,7.0,8.0,72,0.00,,---,0.00,VWS V14.00,2013-01-21 07:25:00,
2013-01-21 02:30:00,18.0,10.5,30.16,West,270,8.0,8.0,72,0.00,,---,0.00,VWS V14.00,2013-01-21 07:30:00,
2013-01-21 02:35:00,18.0,10.5,30.16,West,265,3.0,11.0,72,0.00,,---,0.00,VWS V14.00,2013-01-21 07:35:00,
2013-01-21 02:41:00,18.0,10.5,30.16,West,280,1.0,11.0,72,0.00,,---,0.00,VWS V14.00,2013-01-21 07:41:00,
2013-01-21 02:46:00,18.0,10.5,30.16,WSW,252,2.0,11.0,72,0.00,,---,0.00,VWS V14.00,2013-01-21 07:46:00,
2013-01-21 02:52:00,18.0,10.5,30.16,WSW,257,5.0,11.0,72,0.00,,---,0.00,VWS V14.00,2013-01-21 07:52:00,
2013-01-21 02:57:00,18.0,10.5,30.15,West,267,6.0,11.0,72,0.00,,---,0.00,VWS V14.00,2013-01-21 07:57:00,
2013-01-21 03:03:00,18.0,10.5,30.15,WSW,254,3.0,6.0,72,0.00,,---,0.00,VWS V14.00,2013-01-21 08:03:00,
2013-01-21 03:08:00,18.0,10.5,30.15,WSW,257,4.0,7.0,72,0.00,,---,0.00,VWS V14.00,2013-01-21 08:08:00,
2013-01-21 03:13:00,18.0,10.5,30.15,West,263,1.0,8.0,72,0.00,,---,0.00,VWS V14.00,2013-01-21 08:13:00,
2013-01-21 03:18:00,17.9,10.4,30.15,WSW,255,2.0,10.0,72,0.00,,---,0.00,VWS V14.00,2013-01-21 08:18:00,
2013-01-21 03:24:00,17.9,10.4,30.15,WSW,254,6.0,10.0,72,0.00,,---,0.00,VWS V14.00,2013-01-21 08:24:00,
2013-01-21 03:29:00,17.9,10.4,30.15,WNW,282,5.0,10.0,72,0.00,,---,0.00,VWS V14.00,2013-01-21 08:29:00,
2013-01-21 03:34:00,17.9,10.1,30.15,West,267,5.0,8.0,71,0.00,,---,0.00,VWS V14.00,2013-01-21 08:34:00,
2013-01-21 03:39:00,17.8,9.7,30.15,WSW,257,3.0,11.0,70,0.00,,---,0.00,VWS V14.00,2013-01-21 08:39:00,
2013-01-21 03:44:00,17.7,9.3,30.14,West,267,3.0,11.0,69,0.00,,---,0.00,VWS V14.00,2013-01-21 08:44:00,
2013-01-21 03:49:00,17.6,9.2,30.14,West,264,3.0,11.0,69,0.00,,---,0.00,VWS V14.00,2013-01-21 08:49:00,
2013-01-21 03:54:00,17.5,9.1,30.14,WSW,240,4.0,11.0,69,0.00,,---,0.00,VWS V14.00,2013-01-21 08:54:00,
2013-01-21 04:00:00,17.4,9.0,30.13,WSW,253,4.0,11.0,69,0.00,,---,0.00,VWS V14.00,2013-01-21 09:00:00,
2013-01-21 04:05:00,17.3,8.9,30.13,West,267,6.0,10.0,69,0.00,,---,0.00,VWS V14.00,2013-01-21 09:05:00,
2013-01-21 04:10:00,17.3,8.9,30.13,West,264,3.0,10.0,69,0.00,,---,0.00,VWS V14.00,2013-01-21 09:10:00,
2013-01-21 04:15:00,17.2,8.8,30.13,WSW,258,3.0,11.0,69,0.00,,---,0.00,VWS V14.00,2013-01-21 09:15:00,
2013-01-21 04:20:00,17.2,8.8,30.13,WSW,257,4.0,13.0,69,0.00,,---,0.00,VWS V14.00,2013-01-21 09:20:00,
2013-01-21 04:25:00,17.2,8.8,30.13,WSW,252,8.0,13.0,69,0.00,,---,0.00,VWS V14.00,2013-01-21 09:25:00,
2013-01-21 04:30:00,17.2,8.8,30.13,WSW,250,13.0,14.0,69,0.00,,---,0.00,VWS V14.00,2013-01-21 09:30:00,
2013-01-21 04:36:00,17.1,8.4,30.13,WNW,287,5.0,14.0,68,0.00,,---,0.00,VWS V14.00,2013-01-21 09:36:00,
2013-01-21 04:41:00,17.1,8.4,30.13,SW,227,6.0,14.0,68,0.00,,---,0.00,VWS V14.00,2013-01-21 09:41:00,
2013-01-21 04:46:00,17.1,8.1,30.12,WSW,254,6.0,16.0,67,0.00,,---,0.00,VWS V14.00,2013-01-21 09:46:00,
2013-01-21 04:52:00,17.1,8.4,30.12,WSW,243,8.0,16.0,68,0.00,,---,0.00,VWS V14.00,2013-01-21 09:52:00,
2013-01-21 04:57:00,17.1,8.4,30.12,West,273,5.0,16.0,68,0.00,,---,0.00,VWS V14.00,2013-01-21 09:57:00,
2013-01-21 05:02:00,17.0,7.9,30.12,West,261,5.0,10.0,67,0.00,,---,0.00,VWS V14.00,2013-01-21 10:02:00,
2013-01-21 05:07:00,16.9,7.5,30.12,WSW,242,3.0,17.0,66,0.00,,---,0.00,VWS V14.00,2013-01-21 10:07:00,
2013-01-21 05:12:00,16.9,7.2,30.12,West,279,15.0,17.0,65,0.00,,---,0.00,VWS V14.00,2013-01-21 10:12:00,
2013-01-21 05:18:00,16.8,6.8,30.11,West,270,7.0,19.0,64,0.00,,---,0.00,VWS V14.00,2013-01-21 10:18:00,
2013-01-21 05:23:00,16.8,6.8,30.11,West,266,3.0,19.0,64,0.00,,---,0.00,VWS V14.00,2013-01-21 10:23:00,
2013-01-21 05:28:00,16.7,6.7,30.12,West,262,2.0,19.0,64,0.00,,---,0.00,VWS V14.00,2013-01-21 10:28:00,
2013-01-21 05:33:00,16.7,6.7,30.11,West,267,5.0,13.0,64,0.00,,---,0.00,VWS V14.00,2013-01-21 10:33:00,
2013-01-21 05:38:00,16.7,6.3,30.11,WSW,241,6.0,13.0,63,0.00,,---,0.00,VWS V14.00,2013-01-21 10:38:00,
2013-01-21 05:43:00,16.7,6.3,30.11,West,273,9.0,14.0,63,0.00,,---,0.00,VWS V14.00,2013-01-21 10:43:00,
2013-01-21 05:49:00,16.7,6.3,30.11,West,261,6.0,14.0,63,0.00,,---,0.00,VWS V14.00,2013-01-21 10:49:00,
2013-01-21 05:54:00,16.6,6.2,30.11,West,267,2.0,14.0,63,0.00,,---,0.00,VWS V14.00,2013-01-21 10:54:00,
2013-01-21 05:59:00,16.6,6.2,30.11,West,275,4.0,14.0,63,0.00,,---,0.00,VWS V14.00,2013-01-21 10:59:00,
2013-01-21 06:04:00,16.5,6.1,30.11,West,264,2.0,14.0,63,0.00,,---,0.00,VWS V14.00,2013-01-21 11:04:00,
2013-01-21 06:09:00,16.5,6.1,30.11,WSW,257,7.0,14.0,63,0.00,,---,0.00,VWS V14.00,2013-01-21 11:09:00,
2013-01-21 06:15:00,16.4,6.0,30.11,West,277,6.0,14.0,63,0.00,,---,0.00,VWS V14.00,2013-01-21 11:15:00,
2013-01-21 06:20:00,16.4,6.0,30.11,West,260,2.0,14.0,63,0.00,,---,0.00,VWS V14.00,2013-01-21 11:20:00,
2013-01-21 06:26:00,16.3,5.9,30.11,West,259,3.0,14.0,63,0.00,,---,0.00,VWS V14.00,2013-01-21 11:26:00,
2013-01-21 06:31:00,16.3,5.9,30.11,WSW,245,10.0,12.0,63,0.00,,---,0.00,VWS V14.00,2013-01-21 11:31:00,
2013-01-21 06:36:00,16.2,5.8,30.11,WSW,254,6.0,13.0,63,0.00,,---,0.00,VWS V14.00,2013-01-21 11:36:00,
2013-01-21 06:41:00,16.1,5.7,30.11,WSW,247,8.0,17.0,63,0.00,,---,0.00,VWS V14.00,2013-01-21 11:41:00,
2013-01-21 06:46:00,16.1,5.7,30.12,West,274,4.0,17.0,63,0.00,,---,0.00,VWS V14.00,2013-01-21 11:46:00,
2013-01-21 06:52:00,16.1,5.7,30.12,WNW,296,6.0,18.0,63,0.00,,---,0.00,VWS V14.00,2013-01-21 11:52:00,
2013-01-21 06:57:00,16.1,5.7,30.12,West,263,11.0,18.0,63,0.00,,---,0.00,VWS V14.00,2013-01-21 11:57:00,
2013-01-21 07:02:00,15.9,5.6,30.12,West,265,10.0,18.0,63,0.00,,---,0.00,VWS V14.00,2013-01-21 12:02:00,
2013-01-21 07:07:00,15.9,5.6,30.12,West,265,3.0,18.0,63,0.00,,---,0.00,VWS V14.00,2013-01-21 12:07:00,
2013-01-21 07:12:00,15.8,5.4,30.11,West,265,14.0,18.0,63,0.00,,---,0.00,VWS V14.00,2013-01-21 12:12:00,
2013-01-21 07:17:00,15.7,5.7,30.11,WSW,255,13.0,18.0,64,0.00,,---,0.00,VWS V14.00,2013-01-21 12:17:00,
2013-01-21 07:22:00,15.6,5.6,30.11,West,279,5.0,18.0,64,0.00,,---,0.00,VWS V14.00,2013-01-21 12:22:00,
2013-01-21 07:27:00,15.6,5.6,30.11,West,270,5.0,18.0,64,0.00,,---,0.00,VWS V14.00,2013-01-21 12:27:00,
2013-01-21 07:32:00,15.5,5.5,30.11,West,268,3.0,14.0,64,0.00,,---,0.00,VWS V14.00,2013-01-21 12:32:00,
2013-01-21 07:37:00,15.5,5.8,30.11,West,268,7.0,14.0,65,0.00,,---,0.00,VWS V14.00,2013-01-21 12:37:00,
2013-01-21 07:42:00,15.4,5.8,30.11,West,261,5.0,14.0,65,0.00,,---,0.00,VWS V14.00,2013-01-21 12:42:00,
2013-01-21 07:47:00,15.4,5.8,30.11,WNW,295,4.0,14.0,65,0.00,,---,0.00,VWS V14.00,2013-01-21 12:47:00,
2013-01-21 07:52:00,15.4,5.8,30.11,WSW,250,7.0,14.0,65,0.00,,---,0.00,VWS V14.00,2013-01-21 12:52:00,
2013-01-21 07:57:00,15.4,5.8,30.11,West,275,7.0,14.0,65,0.00,,---,0.00,VWS V14.00,2013-01-21 12:57:00,
2013-01-21 08:02:00,15.3,5.7,30.11,West,264,6.0,12.0,65,0.00,,---,0.00,VWS V14.00,2013-01-21 13:02:00,
2013-01-21 08:07:00,15.3,6.0,30.11,West,266,6.0,15.0,66,0.00,,---,0.00,VWS V14.00,2013-01-21 13:07:00,
2013-01-21 08:13:00,15.3,6.0,30.11,West,279,1.0,15.0,66,0.00,,---,0.00,VWS V14.00,2013-01-21 13:13:00,
2013-01-21 08:18:00,15.4,6.1,30.10,West,264,6.0,15.0,66,0.00,,---,0.00,VWS V14.00,2013-01-21 13:18:00,
2013-01-21 08:23:00,15.4,6.1,30.10,West,263,0.0,15.0,66,0.00,,---,0.00,VWS V14.00,2013-01-21 13:23:00,
2013-01-21 08:28:00,15.4,6.4,30.10,WSW,257,6.0,15.0,67,0.00,,---,0.00,VWS V14.00,2013-01-21 13:28:00,
2013-01-21 08:33:00,15.5,6.2,30.10,West,265,8.0,11.0,66,0.00,,---,0.00,VWS V14.00,2013-01-21 13:33:00,
2013-01-21 08:38:00,15.5,6.2,30.10,West,260,5.0,13.0,66,0.00,,---,0.00,VWS V14.00,2013-01-21 13:38:00,
2013-01-21 08:43:00,15.5,6.5,30.10,WSW,238,4.0,13.0,67,0.00,,---,0.00,VWS V14.00,2013-01-21 13:43:00,
2013-01-21 08:48:00,15.5,6.5,30.10,West,281,4.0,15.0,67,0.00,,---,0.00,VWS V14.00,2013-01-21 13:48:00,
2013-01-21 08:53:00,15.5,6.8,30.11,West,263,1.0,15.0,68,0.00,,---,0.00,VWS V14.00,2013-01-21 13:53:00,
2013-01-21 08:58:00,15.5,6.8,30.10,West,270,5.0,15.0,68,0.00,,---,0.00,VWS V14.00,2013-01-21 13:58:00,
2013-01-21 09:03:00,15.4,6.7,30.11,SW,230,10.0,10.0,68,0.00,,---,0.00,VWS V14.00,2013-01-21 14:03:00,
2013-01-21 09:08:00,15.4,6.7,30.11,SW,228,6.0,14.0,68,0.00,,---,0.00,VWS V14.00,2013-01-21 14:08:00,
2013-01-21 09:13:00,15.4,6.7,30.10,West,259,7.0,14.0,68,0.00,,---,0.00,VWS V14.00,2013-01-21 14:13:00,
2013-01-21 09:19:00,15.4,7.7,30.11,WSW,256,8.0,15.0,71,0.00,,---,0.00,VWS V14.00,2013-01-21 14:19:00,
2013-01-21 09:24:00,15.3,8.2,30.11,NW,306,7.0,15.0,73,0.00,,---,0.00,VWS V14.00,2013-01-21 14:24:00,
2013-01-21 09:29:00,15.0,9.4,30.11,West,277,4.0,15.0,78,0.00,,---,0.00,VWS V14.00,2013-01-21 14:29:00,
2013-01-21 09:34:00,14.6,9.8,30.11,WSW,247,13.0,14.0,81,0.00,,---,0.00,VWS V14.00,2013-01-21 14:34:00,
2013-01-21 09:39:00,14.1,8.8,30.11,West,265,7.0,19.0,79,0.00,,---,0.00,VWS V14.00,2013-01-21 14:39:00,
2013-01-21 09:44:00,13.9,8.6,30.12,WSW,256,5.0,19.0,79,0.00,,---,0.00,VWS V14.00,2013-01-21 14:44:00,
2013-01-21 09:49:00,13.7,8.4,30.12,West,279,8.0,20.0,79,0.00,,---,0.00,VWS V14.00,2013-01-21 14:49:00,
2013-01-21 09:54:00,13.6,8.6,30.12,West,268,4.0,20.0,80,0.00,,---,0.00,VWS V14.00,2013-01-21 14:54:00,
2013-01-21 09:59:00,13.7,8.7,30.12,WSW,252,7.0,20.0,80,0.00,,---,0.00,VWS V14.00,2013-01-21 14:59:00,
2013-01-21 10:04:00,13.9,7.8,30.12,WSW,257,11.0,20.0,76,0.00,,---,0.00,VWS V14.00,2013-01-21 15:04:00,
2013-01-21 10:09:00,14.0,7.2,30.12,West,270,9.0,20.0,74,0.00,,---,0.00,VWS V14.00,2013-01-21 15:09:00,
2013-01-21 10:14:00,14.0,6.3,30.12,WNW,286,5.0,21.0,71,0.00,,---,0.00,VWS V14.00,2013-01-21 15:14:00,
2013-01-21 10:19:00,13.7,6.7,30.12,WNW,301,8.0,21.0,73,0.00,,---,0.00,VWS V14.00,2013-01-21 15:19:00,
2013-01-21 10:24:00,13.6,6.9,30.12,West,269,7.0,21.0,74,0.00,,---,0.00,VWS V14.00,2013-01-21 15:24:00,
2013-01-21 10:29:00,13.9,7.2,30.11,West,268,4.0,21.0,74,0.00,,---,0.00,VWS V14.00,2013-01-21 15:29:00,
2013-01-21 10:34:00,14.1,7.3,30.11,West,276,8.0,14.0,74,0.00,,---,0.00,VWS V14.00,2013-01-21 15:34:00,
2013-01-21 10:39:00,14.2,7.2,30.11,West,263,10.0,14.0,73,0.00,,---,0.00,VWS V14.00,2013-01-21 15:39:00,
2013-01-21 10:44:00,14.6,7.5,30.11,West,273,9.0,25.0,73,0.00,,---,0.00,VWS V14.00,2013-01-21 15:44:00,
2013-01-21 10:50:00,14.8,7.7,30.11,WSW,248,10.0,25.0,73,0.00,,---,0.00,VWS V14.00,2013-01-21 15:50:00,
2013-01-21 10:55:00,14.6,6.9,30.11,WSW,252,15.0,25.0,71,0.00,,---,0.00,VWS V14.00,2013-01-21 15:55:00,
2013-01-21 11:00:00,14.4,5.8,30.11,West,279,5.0,25.0,68,0.00,,---,0.00,VWS V14.00,2013-01-21 16:00:00,
2013-01-21 11:05:00,14.6,5.7,30.11,West,260,7.0,18.0,67,0.00,,---,0.00,VWS V14.00,2013-01-21 16:05:00,
2013-01-21 11:10:00,14.9,6.3,30.11,WNW,289,7.0,18.0,68,0.00,,---,0.00,VWS V14.00,2013-01-21 16:10:00,
2013-01-21 11:15:00,15.3,6.0,30.11,West,277,5.0,18.0,66,0.00,,---,0.00,VWS V14.00,2013-01-21 16:15:00,
2013-01-21 11:20:00,15.4,5.8,30.11,WNW,290,7.0,18.0,65,0.00,,---,0.00,VWS V14.00,2013-01-21 16:20:00,
2013-01-21 11:25:00,15.4,6.1,30.11,WSW,257,12.0,18.0,66,0.00,,---,0.00,VWS V14.00,2013-01-21 16:25:00,
2013-01-21 11:30:00,15.4,5.8,30.11,West,265,13.0,15.0,65,0.00,,---,0.00,VWS V14.00,2013-01-21 16:30:00,
2013-01-21 11:35:00,15.2,5.2,30.11,West,271,7.0,15.0,64,0.00,,---,0.00,VWS V14.00,2013-01-21 16:35:00,
2013-01-21 11:40:00,15.0,5.0,30.11,West,272,11.0,19.0,64,0.00,,---,0.00,VWS V14.00,2013-01-21 16:40:00,
2013-01-21 11:45:00,15.4,4.7,30.11,WNW,282,7.0,19.0,62,0.00,,---,0.00,VWS V14.00,2013-01-21 16:45:00,
2013-01-21 11:50:00,15.8,4.8,30.10,WSW,257,10.0,24.0,61,0.00,,---,0.00,VWS V14.00,2013-01-21 16:50:00,
2013-01-21 11:55:00,15.6,3.5,30.10,West,265,10.0,24.0,58,0.00,,---,0.00,VWS V14.00,2013-01-21 16:55:00,
2013-01-21 12:00:00,15.7,3.6,30.10,WNW,296,5.0,6.0,58,0.00,,---,0.00,VWS V14.00,2013-01-21 17:00:00,
2013-01-21 12:05:00,16.2,4.0,30.10,West,268,7.0,22.0,58,0.00,,---,0.00,VWS V14.00,2013-01-21 17:05:00,
2013-01-21 12:10:00,16.2,3.3,30.10,West,279,6.0,22.0,56,0.00,,---,0.00,VWS V14.00,2013-01-21 17:10:00,
2013-01-21 12:15:00,15.9,2.2,30.10,WNW,294,16.0,22.0,54,0.00,,---,0.00,VWS V14.00,2013-01-21 17:15:00,
2013-01-21 12:20:00,15.9,1.8,30.10,WNW,283,9.0,27.0,53,0.00,,---,0.00,VWS V14.00,2013-01-21 17:20:00,
2013-01-21 12:25:00,15.9,2.2,30.10,WSW,250,6.0,27.0,54,0.00,,---,0.00,VWS V14.00,2013-01-21 17:25:00,
2013-01-21 12:30:00,16.3,3.0,30.09,West,278,5.0,9.0,55,0.00,,---,0.00,VWS V14.00,2013-01-21 17:30:00,
2013-01-21 12:36:00,16.7,2.1,30.09,West,281,7.0,19.0,52,0.00,,---,0.00,VWS V14.00,2013-01-21 17:36:00,
2013-01-21 12:41:00,16.5,2.8,30.09,WNW,298,11.0,20.0,54,0.00,,---,0.00,VWS V14.00,2013-01-21 17:41:00,
2013-01-21 12:46:00,16.5,3.2,30.09,WNW,299,6.0,20.0,55,0.00,,---,0.00,VWS V14.00,2013-01-21 17:46:00,
2013-01-21 12:51:00,16.2,2.9,30.08,West,261,7.0,20.0,55,0.00,,---,0.00,VWS V14.00,2013-01-21 17:51:00,
2013-01-21 12:56:00,16.2,3.3,30.08,West,274,7.0,23.0,56,0.00,,---,0.00,VWS V14.00,2013-01-21 17:56:00,
2013-01-21 13:01:00,16.4,3.1,30.08,WNW,285,8.0,11.0,55,0.00,,---,0.00,VWS V14.00,2013-01-21 18:01:00,
2013-01-21 13:06:00,16.3,3.4,30.08,WNW,284,8.0,18.0,56,0.00,,---,0.00,VWS V14.00,2013-01-21 18:06:00,
2013-01-21 13:11:00,16.1,2.0,30.08,West,264,13.0,20.0,53,0.00,,---,0.00,VWS V14.00,2013-01-21 18:11:00,
2013-01-21 13:16:00,16.0,1.9,30.08,West,260,11.0,20.0,53,0.00,,---,0.00,VWS V14.00,2013-01-21 18:16:00,
2013-01-21 13:21:00,16.1,2.0,30.08,West,263,10.0,22.0,53,0.00,,---,0.00,VWS V14.00,2013-01-21 18:21:00,
2013-01-21 13:26:00,16.2,2.1,30.08,WNW,303,8.0,22.0,53,0.00,,---,0.00,VWS V14.00,2013-01-21 18:26:00,
2013-01-21 13:31:00,16.4,2.3,30.08,West,268,6.0,17.0,53,0.00,,---,0.00,VWS V14.00,2013-01-21 18:31:00,
2013-01-21 13:36:00,16.1,3.2,30.07,West,271,8.0,17.0,56,0.00,,---,0.00,VWS V14.00,2013-01-21 18:36:00,
2013-01-21 13:42:00,15.7,5.0,30.07,WNW,286,5.0,17.0,62,0.00,,---,0.00,VWS V14.00,2013-01-21 18:42:00,
2013-01-21 13:47:00,15.3,5.3,30.08,West,267,11.0,19.0,64,0.00,,---,0.00,VWS V14.00,2013-01-21 18:47:00,
2013-01-21 13:52:00,15.4,3.7,30.08,SW,228,6.0,19.0,59,0.00,,---,0.00,VWS V14.00,2013-01-21 18:52:00,
2013-01-21 13:57:00,15.7,3.6,30.08,West,279,4.0,19.0,58,0.00,,---,0.00,VWS V14.00,2013-01-21 18:57:00,
2013-01-21 14:02:00,15.2,4.2,30.08,NW,304,8.0,12.0,61,0.00,,---,0.00,VWS V14.00,2013-01-21 19:02:00,
2013-01-21 14:07:00,14.5,5.2,30.08,West,275,5.0,12.0,66,0.00,,---,0.00,VWS V14.00,2013-01-21 19:07:00,
2013-01-21 14:12:00,14.9,4.6,30.08,WNW,286,8.0,17.0,63,0.00,,---,0.00,VWS V14.00,2013-01-21 19:12:00,
2013-01-21 14:17:00,15.0,5.7,30.08,West,267,13.0,17.0,66,0.00,,---,0.00,VWS V14.00,2013-01-21 19:17:00,
2013-01-21 14:22:00,15.3,5.0,30.08,West,264,7.0,17.0,63,0.00,,---,0.00,VWS V14.00,2013-01-21 19:22:00,
2013-01-21 14:27:00,15.9,1.8,30.08,West,271,7.0,17.0,53,0.00,,---,0.00,VWS V14.00,2013-01-21 19:27:00,
2013-01-21 14:32:00,15.6,2.3,30.09,West,274,6.0,12.0,55,0.00,,---,0.00,VWS V14.00,2013-01-21 19:32:00,
2013-01-21 14:37:00,15.2,3.1,30.09,WNW,283,5.0,13.0,58,0.00,,---,0.00,VWS V14.00,2013-01-21 19:37:00,
2013-01-21 14:43:00,15.2,3.8,30.09,WNW,296,5.0,13.0,60,0.00,,---,0.00,VWS V14.00,2013-01-21 19:43:00,
2013-01-21 14:48:00,14.9,2.8,30.09,West,273,12.0,13.0,58,0.00,,---,0.00,VWS V14.00,2013-01-21 19:48:00,
2013-01-21 14:53:00,14.3,4.4,30.09,West,272,8.0,15.0,64,0.00,,---,0.00,VWS V14.00,2013-01-21 19:53:00,
2013-01-21 14:58:00,14.1,4.2,30.09,West,279,5.0,15.0,64,0.00,,---,0.00,VWS V14.00,2013-01-21 19:58:00,
2013-01-21 15:03:00,14.3,3.0,30.10,West,275,5.0,15.0,60,0.00,,---,0.00,VWS V14.00,2013-01-21 20:03:00,
2013-01-21 15:08:00,14.3,5.0,30.10,WSW,250,14.0,18.0,66,0.00,,---,0.00,VWS V14.00,2013-01-21 20:08:00,
2013-01-21 15:13:00,14.0,5.4,30.10,West,265,8.0,18.0,68,0.00,,---,0.00,VWS V14.00,2013-01-21 20:13:00,
2013-01-21 15:18:00,13.8,4.9,30.10,WSW,257,10.0,18.0,67,0.00,,---,0.00,VWS V14.00,2013-01-21 20:18:00,
2013-01-21 15:23:00,13.8,2.1,30.10,NW,306,8.0,18.0,59,0.00,,---,0.00,VWS V14.00,2013-01-21 20:23:00,
2013-01-21 15:28:00,13.9,3.0,30.10,West,259,7.0,18.0,61,0.00,,---,0.00,VWS V14.00,2013-01-21 20:28:00,
2013-01-21 15:33:00,13.6,1.2,30.11,West,263,7.0,17.0,57,0.00,,---,0.00,VWS V14.00,2013-01-21 20:33:00,
2013-01-21 15:38:00,13.5,0.3,30.11,West,270,6.0,18.0,55,0.00,,---,0.00,VWS V14.00,2013-01-21 20:38:00,
2013-01-21 15:43:00,13.2,0.1,30.11,West,267,6.0,18.0,55,0.00,,---,0.00,VWS V14.00,2013-01-21 20:43:00,
2013-01-21 15:49:00,13.3,1.3,30.12,WNW,292,9.0,23.0,58,0.00,,---,0.00,VWS V14.00,2013-01-21 20:49:00,
2013-01-21 15:54:00,14.0,1.6,30.12,WNW,294,7.0,23.0,57,0.00,,---,0.00,VWS V14.00,2013-01-21 20:54:00,
2013-01-21 15:59:00,14.1,0.9,30.12,WSW,246,13.0,23.0,55,0.00,,---,0.00,VWS V14.00,2013-01-21 20:59:00,
2013-01-21 16:04:00,13.9,0.3,30.12,WSW,257,10.0,23.0,54,0.00,,---,0.00,VWS V14.00,2013-01-21 21:04:00,
2013-01-21 16:09:00,14.0,2.7,30.12,NW,305,8.0,23.0,60,0.00,,---,0.00,VWS V14.00,2013-01-21 21:09:00,
2013-01-21 16:14:00,14.0,2.7,30.13,WNW,295,11.0,23.0,60,0.00,,---,0.00,VWS V14.00,2013-01-21 21:14:00,
2013-01-21 16:19:00,13.8,1.8,30.13,West,274,5.0,23.0,58,0.00,,---,0.00,VWS V14.00,2013-01-21 21:19:00,
2013-01-21 16:24:00,13.5,0.7,30.13,West,271,6.0,23.0,56,0.00,,---,0.00,VWS V14.00,2013-01-21 21:24:00,
2013-01-21 16:29:00,13.3,0.6,30.13,WNW,290,6.0,23.0,56,0.00,,---,0.00,VWS V14.00,2013-01-21 21:29:00,
2013-01-21 16:34:00,13.2,0.1,30.14,WSW,244,12.0,19.0,55,0.00,,---,0.00,VWS V14.00,2013-01-21 21:34:00,
2013-01-21 16:39:00,13.1,0.0,30.14,West,281,7.0,19.0,55,0.00,,---,0.00,VWS V14.00,2013-01-21 21:39:00,
2013-01-21 16:44:00,13.3,0.9,30.14,West,275,8.0,22.0,57,0.00,,---,0.00,VWS V14.00,2013-01-21 21:44:00,
2013-01-21 16:49:00,13.0,0.3,30.14,West,280,7.0,22.0,56,0.00,,---,0.00,VWS V14.00,2013-01-21 21:49:00,
2013-01-21 16:54:00,13.0,-0.5,30.14,WNW,282,6.0,22.0,54,0.00,,---,0.00,VWS V14.00,2013-01-21 21:54:00,
2013-01-21 16:59:00,13.0,-0.1,30.14,West,277,9.0,22.0,55,0.00,,---,0.00,VWS V14.00,2013-01-21 21:59:00,
2013-01-21 17:04:00,12.7,0.0,30.14,West,275,7.0,17.0,56,0.00,,---,0.00,VWS V14.00,2013-01-21 22:04:00,
2013-01-21 17:09:00,12.1,0.2,30.15,West,263,11.0,17.0,58,0.00,,---,0.00,VWS V14.00,2013-01-21 22:09:00,
2013-01-21 17:15:00,12.1,-0.2,30.14,West,269,11.0,23.0,57,0.00,,---,0.00,VWS V14.00,2013-01-21 22:15:00,
2013-01-21 17:20:00,11.9,-0.8,30.15,WSW,252,6.0,23.0,56,0.00,,---,0.00,VWS V14.00,2013-01-21 22:20:00,
2013-01-21 17:25:00,11.7,-0.2,30.15,West,268,4.0,23.0,58,0.00,,---,0.00,VWS V14.00,2013-01-21 22:25:00,
2013-01-21 17:30:00,11.6,0.1,30.15,West,277,9.0,23.0,59,0.00,,---,0.00,VWS V14.00,2013-01-21 22:30:00,
2013-01-21 17:35:00,11.3,0.5,30.15,WNW,284,6.0,14.0,61,0.00,,---,0.00,VWS V14.00,2013-01-21 22:35:00,
2013-01-21 17:40:00,11.0,0.5,30.15,WNW,297,12.0,14.0,62,0.00,,---,0.00,VWS V14.00,2013-01-21 22:40:00,
2013-01-21 17:45:00,11.0,0.9,30.15,WSW,257,12.0,16.0,63,0.00,,---,0.00,VWS V14.00,2013-01-21 22:45:00,
2013-01-21 17:50:00,10.8,1.4,30.15,West,276,8.0,18.0,65,0.00,,---,0.00,VWS V14.00,2013-01-21 22:50:00,
2013-01-21 17:55:00,10.7,0.9,30.15,West,279,5.0,18.0,64,0.00,,---,0.00,VWS V14.00,2013-01-21 22:55:00,
2013-01-21 18:00:00,10.7,0.3,30.16,WNW,298,7.0,12.0,62,0.00,,---,0.00,VWS V14.00,2013-01-21 23:00:00,
2013-01-21 18:05:00,10.5,0.4,30.16,West,276,7.0,14.0,63,0.00,,---,0.00,VWS V14.00,2013-01-21 23:05:00,
2013-01-21 18:10:00,10.4,0.6,30.16,West,279,6.0,19.0,64,0.00,,---,0.00,VWS V14.00,2013-01-21 23:10:00,
2013-01-21 18:15:00,10.4,0.3,30.16,West,277,4.0,19.0,63,0.00,,---,0.00,VWS V14.00,2013-01-21 23:15:00,
2013-01-21 18:20:00,10.3,0.2,30.16,WNW,286,6.0,19.0,63,0.00,,---,0.00,VWS V14.00,2013-01-21 23:20:00,
2013-01-21 18:25:00,10.3,0.2,30.17,WNW,283,4.0,19.0,63,0.00,,---,0.00,VWS V14.00,2013-01-21 23:25:00,
2013-01-21 18:30:00,10.1,0.0,30.17,NW,320,7.0,8.0,63,0.00,,---,0.00,VWS V14.00,2013-01-21 23:30:00,
2013-01-21 18:35:00,10.0,0.3,30.16,West,267,4.0,12.0,64,0.00,,---,0.00,VWS V14.00,2013-01-21 23:35:00,
2013-01-21 18:40:00,9.9,0.2,30.16,WNW,296,6.0,15.0,64,0.00,,---,0.00,VWS V14.00,2013-01-21 23:40:00,
2013-01-21 18:45:00,9.8,0.1,30.17,WSW,251,8.0,15.0,64,0.00,,---,0.00,VWS V14.00,2013-01-21 23:45:00,
2013-01-21 18:51:00,9.8,-0.3,30.17,WSW,240,10.0,15.0,63,0.00,,---,0.00,VWS V14.00,2013-01-21 23:51:00,
2013-01-21 18:56:00,9.7,-0.3,30.17,SW,232,8.0,15.0,63,0.00,,---,0.00,VWS V14.00,2013-01-21 23:56:00,
2013-01-21 19:01:00,9.6,-0.8,30.16,West,263,5.0,10.0,62,0.00,,---,0.00,VWS V14.00,2013-01-22 00:01:00,
2013-01-21 19:06:00,9.6,-0.8,30.17,West,268,2.0,15.0,62,0.00,,---,0.00,VWS V14.00,2013-01-22 00:06:00,
2013-01-21 19:11:00,9.5,-0.9,30.17,West,259,13.0,15.0,62,0.00,,---,0.00,VWS V14.00,2013-01-22 00:11:00,
2013-01-21 19:16:00,9.4,-1.0,30.17,WNW,294,13.0,15.0,62,0.00,,---,0.00,VWS V14.00,2013-01-22 00:16:00,
2013-01-21 19:21:00,9.3,-1.1,30.17,WSW,246,5.0,19.0,62,0.00,,---,0.00,VWS V14.00,2013-01-22 00:21:00,
2013-01-21 19:26:00,9.3,-1.1,30.17,WSW,252,10.0,19.0,62,0.00,,---,0.00,VWS V14.00,2013-01-22 00:26:00,
2013-01-21 19:31:00,9.2,-1.2,30.17,West,266,18.0,18.0,62,0.00,,---,0.00,VWS V14.00,2013-01-22 00:31:00,
2013-01-21 19:36:00,9.2,-1.2,30.17,West,263,4.0,18.0,62,0.00,,---,0.00,VWS V14.00,2013-01-22 00:36:00,
2013-01-21 19:41:00,9.1,-1.3,30.17,WSW,252,6.0,18.0,62,0.00,,---,0.00,VWS V14.00,2013-01-22 00:41:00,
2013-01-21 19:46:00,9.1,-1.6,30.17,West,273,9.0,18.0,61,0.00,,---,0.00,VWS V14.00,2013-01-22 00:46:00,
2013-01-21 19:51:00,9.1,-1.6,30.17,West,269,8.0,18.0,61,0.00,,---,0.00,VWS V14.00,2013-01-22 00:51:00,
2013-01-21 19:56:00,9.1,-1.6,30.17,WSW,252,8.0,18.0,61,0.00,,---,0.00,VWS V14.00,2013-01-22 00:56:00,
2013-01-21 20:01:00,9.0,-1.4,30.17,West,262,8.0,8.0,62,0.00,,---,0.00,VWS V14.00,2013-01-22 01:01:00,
2013-01-21 20:06:00,8.9,-1.5,30.17,West,267,6.0,11.0,62,0.00,,---,0.00,VWS V14.00,2013-01-22 01:06:00,
2013-01-21 20:11:00,8.8,-0.9,30.17,West,269,3.0,11.0,64,0.00,,---,0.00,VWS V14.00,2013-01-22 01:11:00,
2013-01-21 20:16:00,8.6,-1.1,30.18,SW,235,7.0,12.0,64,0.00,,---,0.00,VWS V14.00,2013-01-22 01:16:00,
2013-01-21 20:22:00,8.5,-1.2,30.18,West,259,10.0,12.0,64,0.00,,---,0.00,VWS V14.00,2013-01-22 01:22:00,
2013-01-21 20:27:00,8.5,-1.5,30.18,West,259,5.0,14.0,63,0.00,,---,0.00,VWS V14.00,2013-01-22 01:27:00,
2013-01-21 20:32:00,8.4,-1.6,30.18,WSW,242,7.0,11.0,63,0.00,,---,0.00,VWS V14.00,2013-01-22 01:32:00,
2013-01-21 20:37:00,8.3,-1.7,30.19,West,260,6.0,11.0,63,0.00,,---,0.00,VWS V14.00,2013-01-22 01:37:00,
2013-01-21 20:42:00,8.2,-1.8,30.18,WSW,255,3.0,14.0,63,0.00,,---,0.00,VWS V14.00,2013-01-22 01:42:00,
2013-01-21 20:47:00,8.2,-1.8,30.18,WSW,256,5.0,14.0,63,0.00,,---,0.00,VWS V14.00,2013-01-22 01:47:00,
2013-01-21 20:52:00,8.1,-2.2,30.18,WSW,244,3.0,18.0,62,0.00,,---,0.00,VWS V14.00,2013-01-22 01:52:00,
2013-01-21 20:57:00,8.1,-1.9,30.18,West,263,7.0,18.0,63,0.00,,---,0.00,VWS V14.00,2013-01-22 01:57:00,
2013-01-21 21:02:00,8.1,-2.2,30.18,WSW,258,2.0,11.0,62,0.00,,---,0.00,VWS V14.00,2013-01-22 02:02:00,
2013-01-21 21:07:00,8.1,-2.2,30.18,West,261,8.0,17.0,62,0.00,,---,0.00,VWS V14.00,2013-01-22 02:07:00,
2013-01-21 21:12:00,8.0,-2.7,30.18,WSW,255,5.0,19.0,61,0.00,,---,0.00,VWS V14.00,2013-01-22 02:12:00,
2013-01-21 21:17:00,8.0,-2.7,30.18,WSW,245,6.0,19.0,61,0.00,,---,0.00,VWS V14.00,2013-01-22 02:17:00,
2013-01-21 21:22:00,8.0,-2.7,30.19,WSW,254,12.0,21.0,61,0.00,,---,0.00,VWS V14.00,2013-01-22 02:22:00,
2013-01-21 21:28:00,8.0,-2.3,30.19,West,266,7.0,21.0,62,0.00,,---,0.00,VWS V14.00,2013-01-22 02:28:00,
2013-01-21 21:33:00,8.0,-2.7,30.19,West,259,5.0,15.0,61,0.00,,---,0.00,VWS V14.00,2013-01-22 02:33:00,
2013-01-21 21:38:00,8.0,-2.7,30.19,WSW,252,12.0,15.0,61,0.00,,---,0.00,VWS V14.00,2013-01-22 02:38:00,
2013-01-21 21:43:00,8.0,-2.7,30.20,West,281,5.0,15.0,61,0.00,,---,0.00,VWS V14.00,2013-01-22 02:43:00,
2013-01-21 21:48:00,8.0,-2.7,30.20,WSW,251,3.0,15.0,61,0.00,,---,0.00,VWS V14.00,2013-01-22 02:48:00,
2013-01-21 21:53:00,8.0,-2.3,30.20,West,272,7.0,15.0,62,0.00,,---,0.00,VWS V14.00,2013-01-22 02:53:00,
2013-01-21 21:58:00,8.1,-2.2,30.20,WSW,254,8.0,15.0,62,0.00,,---,0.00,VWS V14.00,2013-01-22 02:58:00,
2013-01-21 22:03:00,8.1,-2.2,30.20,WNW,285,4.0,13.0,62,0.00,,---,0.00,VWS V14.00,2013-01-22 03:03:00,
2013-01-21 22:08:00,8.1,-2.2,30.20,WSW,249,14.0,23.0,62,0.00,,---,0.00,VWS V14.00,2013-01-22 03:08:00,
2013-01-21 22:13:00,8.0,-2.0,30.21,WNW,291,11.0,23.0,63,0.00,,---,0.00,VWS V14.00,2013-01-22 03:13:00,
2013-01-21 22:18:00,8.1,-1.9,30.20,West,272,7.0,23.0,63,0.00,,---,0.00,VWS V14.00,2013-01-22 03:18:00,
2013-01-21 22:23:00,8.1,-1.9,30.20,West,265,8.0,24.0,63,0.00,,---,0.00,VWS V14.00,2013-01-22 03:23:00,
2013-01-21 22:28:00,8.1,-1.5,30.20,WSW,250,19.0,24.0,64,0.00,,---,0.00,VWS V14.00,2013-01-22 03:28:00,
2013-01-21 22:33:00,8.1,-0.9,30.20,West,260,22.0,22.0,66,0.00,,---,0.00,VWS V14.00,2013-01-22 03:33:00,
2013-01-21 22:38:00,8.0,-1.0,30.20,WSW,257,10.0,23.0,66,0.00,,---,0.00,VWS V14.00,2013-01-22 03:38:00,
2013-01-21 22:43:00,8.0,-1.0,30.20,West,271,8.0,23.0,66,0.00,,---,0.00,VWS V14.00,2013-01-22 03:43:00,
2013-01-21 22:48:00,8.0,-1.0,30.20,WSW,242,12.0,23.0,66,0.00,,---,0.00,VWS V14.00,2013-01-22 03:48:00,
2013-01-21 22:53:00,7.9,-0.8,30.21,SW,221,9.0,23.0,67,0.00,,---,0.00,VWS V14.00,2013-01-22 03:53:00,
2013-01-21 22:58:00,7.9,-0.8,30.21,West,269,5.0,23.0,67,0.00,,---,0.00,VWS V14.00,2013-01-22 03:58:00,
2013-01-21 23:04:00,8.0,-0.7,30.21,WNW,286,7.0,12.0,67,0.00,,---,0.00,VWS V14.00,2013-01-22 04:04:00,
2013-01-21 23:09:00,7.9,-0.8,30.21,West,277,9.0,17.0,67,0.00,,---,0.00,VWS V14.00,2013-01-22 04:09:00,
2013-01-21 23:14:00,7.9,-0.1,30.21,WSW,247,14.0,17.0,69,0.00,,---,0.00,VWS V14.00,2013-01-22 04:14:00,
2013-01-21 23:19:00,7.8,0.1,30.21,WSW,257,7.0,19.0,70,0.00,,---,0.00,VWS V14.00,2013-01-22 04:19:00,
2013-01-21 23:24:00,7.7,0.0,30.22,WNW,283,6.0,19.0,70,0.00,,---,0.00,VWS V14.00,2013-01-22 04:24:00,
2013-01-21 23:29:00,7.8,0.1,30.22,West,269,4.0,19.0,70,0.00,,---,0.00,VWS V14.00,2013-01-22 04:29:00,
2013-01-21 23:34:00,7.8,0.4,30.22,West,272,5.0,10.0,71,0.00,,---,0.00,VWS V14.00,2013-01-22 04:34:00,
2013-01-21 23:39:00,7.9,-0.1,30.22,WSW,254,10.0,14.0,69,0.00,,---,0.00,VWS V14.00,2013-01-22 04:39:00,
2013-01-21 23:44:00,7.8,-0.9,30.22,West,266,7.0,27.0,67,0.00,,---,0.00,VWS V14.00,2013-01-22 04:44:00,
2013-01-21 23:49:00,7.8,-1.2,30.22,WSW,248,11.0,27.0,66,0.00,,---,0.00,VWS V14.00,2013-01-22 04:49:00,
2013-01-21 23:54:00,7.7,-1.0,30.22,West,272,9.0,27.0,67,0.00,,---,0.00,VWS V14.00,2013-01-22 04:54:00,
2013-01-21 23:59:00,7.5,-1.1,30.22,West,270,5.0,27.0,67,0.00,,---,0.00,VWS V14.00,2013-01-22 04:59:00,